Flag for U.S.A. Weather past 2 weeks in Vevay, Indiana, U.S.A.

74 °F

Partly sunny.

Feels Like: 77 °F
Forecast: 55 / 77 °F
Wind: 9 mph from Northeast

Location: Cincinnati / Northern Kentucky International Airport

Current Time: Oct 4, 2015 at 7:49:04 PM

Latest Report: Oct 4, 2015 at 6:52 PM

Visibility: 10 mi

Pressure: 30.02 "Hg

Humidity: 56%

Dew point: 57 °F

Location of VevayLocation

Historic Weather in Vevay — Graph


Vevay temperature yesterday

Maximum temperature yesterday: 52 °F (at 11:52 PM)
Minimum temperature yesterday: 46 °F (at 2:01 AM)
Average temperature yesterday: 49 °F

Past Weeks' High & Low Weather Summary

High84 °F (Sep 24, 4:52 PM)100% (Oct 3, 2:01 AM)30.25 "Hg (Oct 3, 2:01 AM)
Low46 °F (Oct 3, 2:01 AM)32% (Sep 24, 3:52 PM)29.84 "Hg (Sep 29, 5:52 PM)
Average65 °F71%30.07 "Hg
* Reported Sep 19 5:52 PM — Oct 4 5:52 PM, Vevay, Weather by CustomWeather, © 2015

Note: Actual official high and low records may vary slightly from our data, if they occured in-between our weather recording intervals... More about our weather records


Vevay weather history for previous 24 hours

Time TempWeatherWind HumidityBarometerVisibility
5:52 PM
Sun, Oct 4
75 °FPartly sunny.10 mph54%30.01 "Hg10 mi
4:52 PM76 °FPartly sunny.12 mph54%30.00 "Hg10 mi
3:52 PM76 °FBroken clouds.12 mph54%30.00 "Hg10 mi
2:52 PM74 °FPartly sunny.10 mph56%30.01 "Hg10 mi
1:52 PM72 °FBroken clouds.12 mph57%30.03 "Hg10 mi
12:52 PM69 °FBroken clouds.13 mph61%30.04 "Hg10 mi
11:52 AM65 °FBroken clouds.13 mph66%30.06 "Hg10 mi
10:52 AM62 °FBroken clouds.9 mph70%30.06 "Hg10 mi
8:52 AM56 °FPartly sunny.12 mph81%30.06 "Hg10 mi
7:52 AM55 °FMostly cloudy.12 mph83%30.04 "Hg10 mi
6:52 AM55 °FOvercast.12 mph87%30.03 "Hg10 mi
5:52 AM54 °FOvercast.13 mph90%30.02 "Hg10 mi
4:52 AM54 °FPassing clouds.13 mph90%30.01 "Hg10 mi
3:52 AM54 °FMostly cloudy.12 mph90%30.01 "Hg10 mi
2:52 AM54 °FMostly cloudy.10 mph90%30.01 "Hg10 mi
1:59 AM54 °FPartly cloudy.12 mph88%30.01 "Hg10 mi
12:52 AM52 °FMostly cloudy.12 mph93%30.01 "Hg10 mi
11:52 PM
Sat, Oct 3
52 °FLow clouds.13 mph93%30.00 "Hg10 mi
10:52 PM51 °FLow clouds.9 mph92%30.01 "Hg10 mi
9:52 PM51 °FMostly cloudy.13 mph92%30.01 "Hg10 mi
8:52 PM51 °FMostly cloudy.12 mph89%30.00 "Hg10 mi
7:52 PM51 °FMore clouds than sun.14 mph89%30.00 "Hg10 mi
Weather by CustomWeather, © 2015

See weather overviewHow to use our weather pages